When you browse on this site, cookies collect data to enhance your experience and personalize the content and advertising you see.
Visit our Privacy Policy to learn more. By continuing to use the site, you agree to this use of cookies and data.
  • In Switzerland
  • List of Countries
  • For 7 days
  • Water Temperature
  • Weather Map
  • Weather Widgets
  • user-avatar
    Login

    Hourly Weather Baraki Barak

    Today, 14 October, Monday

    Time Temperature Precipitation Wind Pressure Humidity
    00:00 +13°C° 0 mm 0 mps 601 mmHg 23%
    01:00 +12°C° 0 mm 0 mps 600 mmHg 24%
    02:00 +12°C° 0 mm 0 mps 600 mmHg 25%
    03:00 +11°C° 0 mm 0 mps 600 mmHg 25%
    04:00 +10°C° 0 mm 0 mps 599 mmHg 26%
    05:00 +11°C° 0 mm 1 mps 600 mmHg 26%
    06:00 +12°C° 0 mm 1 mps 600 mmHg 24%
    07:00 +14°C° 0 mm 1 mps 601 mmHg 22%
    08:00 +15°C° 0 mm 1 mps 602 mmHg 21%
    09:00 +16°C° 0 mm 1 mps 602 mmHg 19%
    10:00 +18°C° 0 mm 1 mps 603 mmHg 17%
    11:00 +20°C° 0 mm 1 mps 603 mmHg 16%
    12:00 +21°C° 0 mm 1 mps 603 mmHg 15%
    13:00 +20°C° 0 mm 2 mps 603 mmHg 14%
    14:00 +21°C° 0 mm 2 mps 602 mmHg 12%
    15:00 +21°C° 0 mm 2 mps 602 mmHg 13%
    16:00 +21°C° 0 mm 2 mps 602 mmHg 13%
    17:00 +21°C° 0 mm 3 mps 602 mmHg 13%
    18:00 +19°C° 0 mm 2 mps 602 mmHg 17%
    19:00 +17°C° 0 mm 2 mps 602 mmHg 21%
    20:00 +16°C° 0 mm 1 mps 601 mmHg 25%
    21:00 +15°C° 0 mm 1 mps 601 mmHg 27%
    22:00 +14°C° 0 mm 1 mps 601 mmHg 30%
    23:00 +13°C° 0 mm 1 mps 601 mmHg 32%

    Tomorrow, 15 October, Tuesday

    Time Temperature Precipitation Wind Pressure Humidity
    00:00 +13°C° 0 mm 1 mps 601 mmHg 34%
    01:00 +12°C° 0 mm 1 mps 600 mmHg 35%
    02:00 +11°C° 0 mm 1 mps 600 mmHg 37%
    03:00 +11°C° 0 mm 1 mps 600 mmHg 38%
    04:00 +10°C° 0 mm 1 mps 599 mmHg 40%
    05:00 +10°C° 0 mm 1 mps 599 mmHg 41%
    06:00 +11°C° 0 mm 1 mps 600 mmHg 38%
    07:00 +12°C° 0 mm 1 mps 600 mmHg 35%
    08:00 +13°C° 0 mm 1 mps 601 mmHg 32%
    09:00 +15°C° 0 mm 1 mps 602 mmHg 27%
    10:00 +16°C° 0 mm 1 mps 602 mmHg 23%
    11:00 +19°C° 0 mm 1 mps 603 mmHg 18%
    12:00 +20°C° 0 mm 1 mps 603 mmHg 16%
    13:00 +22°C° 0 mm 1 mps 603 mmHg 13%
    14:00 +23°C° 0 mm 1 mps 603 mmHg 10%
    15:00 +23°C° 0 mm 1 mps 603 mmHg 10%
    16:00 +23°C° 0 mm 1 mps 603 mmHg 10%
    17:00 +23°C° 0 mm 1 mps 603 mmHg 9%
    18:00 +21°C° 0 mm 1 mps 602 mmHg 12%
    19:00 +19°C° 0 mm 1 mps 602 mmHg 15%
    20:00 +15°C° 0 mm 0 mps 601 mmHg 18%
    21:00 +14°C° 0 mm 0 mps 601 mmHg 21%
    22:00 +14°C° 0 mm 0 mps 601 mmHg 24%
    23:00 +13°C° 0 mm 0 mps 601 mmHg 27%

    Day after tomorrow, 16 October, Wednesday

    Time Temperature Precipitation Wind Pressure Humidity
    00:00 +12°C° 0 mm 0 mps 600 mmHg 29%
    01:00 +12°C° 0 mm 0 mps 600 mmHg 31%
    02:00 +11°C° 0 mm 0 mps 600 mmHg 33%
    03:00 +11°C° 0 mm 0 mps 599 mmHg 33%
    04:00 +10°C° 0 mm 0 mps 599 mmHg 34%
    05:00 +10°C° 0 mm 0 mps 599 mmHg 34%
    06:00 +12°C° 0 mm 1 mps 600 mmHg 30%
    07:00 +14°C° 0 mm 1 mps 601 mmHg 27%
    08:00 +15°C° 0 mm 1 mps 602 mmHg 24%
    09:00 +18°C° 0 mm 1 mps 602 mmHg 22%
    10:00 +19°C° 0 mm 1 mps 602 mmHg 19%
    11:00 +21°C° 0 mm 1 mps 603 mmHg 17%
    12:00 +22°C° 0 mm 1 mps 603 mmHg 15%
    13:00 +23°C° 0 mm 1 mps 602 mmHg 14%
    14:00 +23°C° 0 mm 2 mps 602 mmHg 13%
    15:00 +23°C° 0 mm 2 mps 602 mmHg 13%
    16:00 +23°C° 0 mm 2 mps 602 mmHg 13%
    17:00 +22°C° 0 mm 3 mps 602 mmHg 13%
    18:00 +20°C° 0 mm 2 mps 601 mmHg 15%
    19:00 +19°C° 0 mm 2 mps 601 mmHg 17%
    20:00 +17°C° 0 mm 2 mps 601 mmHg 20%
    21:00 +16°C° 0 mm 1 mps 600 mmHg 22%
    22:00 +15°C° 0 mm 1 mps 600 mmHg 25%
    23:00 +14°C° 0 mm 1 mps 600 mmHg 28%

    17 October, Thursday

    Time Temperature Precipitation Wind Pressure Humidity
    00:00 +14°C° 0 mm 1 mps 600 mmHg 29%
    01:00 +13°C° 0 mm 1 mps 599 mmHg 30%
    02:00 +13°C° 0 mm 1 mps 599 mmHg 31%
    03:00 +12°C° 0 mm 1 mps 599 mmHg 31%
    04:00 +11°C° 0 mm 1 mps 598 mmHg 31%
    05:00 +11°C° 0 mm 1 mps 598 mmHg 32%
    06:00 +12°C° 0 mm 1 mps 599 mmHg 29%
    07:00 +13°C° 0 mm 1 mps 600 mmHg 26%
    08:00 +14°C° 0 mm 1 mps 601 mmHg 24%
    09:00 +16°C° 0 mm 1 mps 601 mmHg 21%
    10:00 +18°C° 0 mm 1 mps 602 mmHg 19%
    11:00 +20°C° 0 mm 1 mps 602 mmHg 16%
    12:00 +20°C° 0 mm 2 mps 602 mmHg 15%
    13:00 +21°C° 0 mm 3 mps 602 mmHg 13%
    14:00 +22°C° 0 mm 4 mps 602 mmHg 12%
    15:00 +21°C° 0 mm 4 mps 602 mmHg 12%
    16:00 +21°C° 0 mm 5 mps 601 mmHg 13%
    17:00 +20°C° 0 mm 5 mps 601 mmHg 13%
    18:00 +19°C° 0 mm 4 mps 601 mmHg 19%
    19:00 +17°C° 0 mm 3 mps 601 mmHg 24%
    20:00 +15°C° 0 mm 2 mps 600 mmHg 29%
    21:00 +15°C° 0 mm 2 mps 600 mmHg 32%
    22:00 +14°C° 0 mm 2 mps 600 mmHg 35%
    23:00 +14°C° 0 mm 2 mps 600 mmHg 38%

    18 October, Friday

    Time Temperature Precipitation Wind Pressure Humidity
    00:00 +13°C° 0 mm 1 mps 600 mmHg 41%
    01:00 +12°C° 0 mm 1 mps 599 mmHg 43%
    02:00 +12°C° 0 mm 1 mps 599 mmHg 45%
    03:00 +11°C° 0 mm 1 mps 599 mmHg 44%
    04:00 +11°C° 0 mm 1 mps 598 mmHg 43%
    05:00 +10°C° 0 mm 1 mps 598 mmHg 42%
    06:00 +12°C° 0 mm 1 mps 599 mmHg 38%
    07:00 +13°C° 0 mm 1 mps 600 mmHg 34%
    08:00 +14°C° 0 mm 1 mps 601 mmHg 30%
    09:00 +15°C° 0 mm 1 mps 601 mmHg 27%
    10:00 +16°C° 0 mm 1 mps 602 mmHg 25%
    11:00 +19°C° 0 mm 1 mps 602 mmHg 22%
    12:00 +19°C° 0 mm 1 mps 602 mmHg 21%
    13:00 +19°C° 0 mm 2 mps 602 mmHg 20%
    14:00 +20°C° 0 mm 2 mps 602 mmHg 18%
    15:00 +19°C° 0 mm 2 mps 601 mmHg 20%
    16:00 +19°C° 0 mm 2 mps 601 mmHg 22%
    17:00 +18°C° 0 mm 3 mps 601 mmHg 24%
    18:00 +17°C° 0 mm 2 mps 601 mmHg 29%
    19:00 +16°C° 0 mm 2 mps 600 mmHg 34%
    20:00 +14°C° 0 mm 1 mps 600 mmHg 39%
    21:00 +14°C° 0 mm 1 mps 600 mmHg 40%
    22:00 +13°C° 0 mm 1 mps 600 mmHg 42%
    23:00 +11°C° 0 mm 0 mps 600 mmHg 43%

    19 October, Saturday

    Time Temperature Precipitation Wind Pressure Humidity
    00:00 +11°C° 0 mm 0 mps 600 mmHg 43%
    01:00 +12°C° 0 mm 1 mps 599 mmHg 43%
    02:00 +11°C° 0 mm 1 mps 599 mmHg 43%
    03:00 +11°C° 0 mm 1 mps 599 mmHg 44%
    04:00 +10°C° 0 mm 1 mps 599 mmHg 46%
    05:00 +10°C° 0 mm 1 mps 599 mmHg 48%
    06:00 +11°C° 0 mm 1 mps 600 mmHg 45%
    07:00 +12°C° 0 mm 1 mps 601 mmHg 42%
    08:00 +13°C° 0 mm 1 mps 601 mmHg 39%
    09:00 +14°C° 0 mm 1 mps 602 mmHg 35%
    10:00 +16°C° 0 mm 1 mps 602 mmHg 31%
    11:00 +18°C° 0 mm 1 mps 603 mmHg 27%
    12:00 +19°C° 0 mm 1 mps 602 mmHg 24%
    13:00 +20°C° 0 mm 1 mps 602 mmHg 21%
    14:00 +20°C° 0 mm 2 mps 602 mmHg 19%
    15:00 +20°C° 0 mm 2 mps 602 mmHg 18%
    16:00 +20°C° 0 mm 2 mps 602 mmHg 17%
    17:00 +19°C° 0 mm 2 mps 602 mmHg 17%
    18:00 +18°C° 0 mm 2 mps 602 mmHg 21%
    19:00 +17°C° 0 mm 2 mps 602 mmHg 25%
    20:00 +16°C° 0 mm 1 mps 601 mmHg 29%
    21:00 +15°C° 0 mm 1 mps 601 mmHg 34%
    22:00 +15°C° 0 mm 1 mps 601 mmHg 38%
    23:00 +14°C° 0 mm 1 mps 601 mmHg 42%
    Show more